Location: Isola Pescaroli
(45.0500°N, 10.1667°E)
Time: 21:01:10
(UTC+00:00)

Okean 1 - Pass Details

Date: 03 March 2021
Orbit: 538 x 554 km, 82.5° (Epoch: 17 April)

Event Time Altitude Azimuth Distance (km) Brightness Sun altitude
Rises 17:54:23 0° 353° (N) 2,732 7.0 -8.7°
Reaches altitude 10° 17:56:35 10° 356° (N) 1,836 6.0 -9.1°
Maximum altitude 18:00:36 68° 80° (E) 599 3.3 -9.8°
Drops below altitude 10° 18:04:37 10° 164° (SSE) 1,828 5.8 -10.5°
Sets 18:06:47 0° 167° (SSE) 2,719 6.7 -10.9°
